STARLINK-2748 (48694 NORAD) Tracking and Keplerian Element Data

This shows tracking and keplerian element data for the satellite.

Feedback or suggestion? Click here.




ElementValue
Catalog48694
NameSTARLINK-2748
Epoch Orbit173
Epoch Day170.58334491
Epoch Year2021
RAAN306.2351
Inclination53.0478
Eccentricity0.0001319
Argument of Perigee42.3601
Mean Anonmoly93.9842
Mean Motion15.73245391
Decay Rate-7.761E-05
L11 48694U 21044BJ 21170.58334491 -.00007761 00000-0 -50816-4 0 9997
L22 48694 53.0478 306.2351 0001319 42.3601 93.9842 15.73245391 1736

Live tracking and technical data element details for STARLINK-2748 (NORAD 48694). STARLINK-2748 can be tracked NOW for your location showing map with azimuth and elevation plus other details from your city location.

Track the satellite on the map from your city or location and see movement details for azimuth, elevation, latitude, longitude, range, height, and movement on the map or in text.







IsCatalogInMostPopularTable: catalog: 48694, numindb: 4
Update: records affected: 1



GetName: 48694 STARLINK-2748

Hit Count: updated at: Mon, 21 Jun 2021 03:36:42 GMT